sat.trackr.live / text

‹ back to catalog

STARLINK-2507

NORAD 48316 · 2021-036AS

PAYLOAD ACTIVE UNKNOWN

§ Identity

Operator
Country
US
Launch date
2021-04-29
Launch site
AFETR
Launch vehicle
Mass (kg)
RCS (m²)

Purposes: comms

External: N2YO · Heavens-Above · Gunter

§ Orbital elements

Epoch: 2026-05-25T02:54:36.044928Z

Period
94.01 min
Inclination
53.1618°
Eccentricity
0.0001257
Mean motion
15.31696669 rev/d
Perigee alt
469.9 km
Apogee alt
471.6 km
Semi-major
6,848.9 km
B*
2.2921e-5
RAAN
103.4354°
Arg perigee
95.7611°
Mean anomaly
264.3533°
Rev number
27,976

§ Raw data

STARLINK-25071 48316U 21036AS  26145.12125052  .00000346  00000+0  22921-4 0  99922 48316  53.1618 103.4354 0001257  95.7611 264.3533 15.31696669279761

JSON: /api/v1/satellites/48316 · /tle

For live sub-satellite position, see the globe view (requires WebGL).

§ Visibility from observer

Set your observer location to see the next 7 days of passes ≥ 10°. The values pass through the URL so the page stays shareable.

No JS? Fill the form by hand. The geolocation button needs JavaScript.